Location: Augirein
(42.9320°N, 0.9181°E)
Time: 17:08:37
(UTC+00:00)

CZ-2D R/B - Pass Details

Date: 20 June 2021
Orbit: 792 x 845 km, 98.7° (Epoch: 04 August)

Event Time Altitude Azimuth Distance (km) Brightness Sun altitude
Rises 01:33:31 0° 14° (NNE) 3,302 6.8 -20.1°
Reaches altitude 10° 01:35:51 10° 15° (NNE) 2,367 5.7 -19.9°
Maximum altitude 01:41:05 86° 104° (ESE) 801 2.0 -19.5°
Enters shadow 01:43:17 36° 191° (S) 1,230 2.5 -19.3°
